Location: Newark
(34.6283°N, 36.0776°E)
Time: 22:31:00
(UTC+00:00)

A-11 Canister half - Pass Details

Date: 18 September 2019
Orbit: 1527 x 1682 km, 47.3° (Epoch: 20 October)

Event Time Altitude Azimuth Distance (km) Brightness Sun altitude
Rises 11:27:55 0° 286° (WNW) 4,892 11.9 47.3°
Reaches altitude 10° 11:33:52 10° 259° (W) 3,924 11.9 46.4°
Maximum altitude 11:37:17 12° 239° (WSW) 3,755 12.1 45.8°
Drops below altitude 10° 11:40:44 10° 218° (SW) 3,933 12.1 45.3°
Sets 11:46:48 0° 191° (S) 4,916 12.2 44.3°
